Weather History for Storm Lake, IA

Change the Weather History Date:

Friday, March 28, 2014

  Actual Average Record
Temperature  
Mean Temperature 28 °F -  
Max Temperature 32 °F 49 °F 75 °F (2005)
Min Temperature 24 °F 31 °F 17 °F (2008)
Degree Days  
Heating Degree Days 37    
Moisture  
Dew Point 27 °F    
Average Humidity 90    
Maximum Humidity 100    
Minimum Humidity 80    
Precipitation  
Precipitation 0.00 in - - ()
Sea Level Pressure  
Sea Level Pressure 30.05 in    
Wind  
Wind Speed 12 mph (North)    
Max Wind Speed 20 mph    
Max Gust Speed 29 mph    
Visibility 10 miles    
Events      
Averages and records for this station are not official NWS values.
T = Trace of Precipitation, MM = Missing Value Source: NWS Daily Summary

Daily Weather History Graph

Daily Weather History Graph

Search for Another Location

Airport:

Trip Planner

Search our weather history database for the weather conditions in past years. The results will help you decide how hot, cold, wet, or windy it might be!

Date:

Astronomy

Mar. 28, 2014 Rise Set
Actual Time 7:10 AM CDT 7:42 PM CDT
Civil Twilight 6:41 AM CDT 8:10 PM CDT
Nautical Twilight 6:08 AM CDT 8:44 PM CDT
Astronomical Twilight 5:34 AM CDT 9:18 PM CDT
Moon 5:44 AM CDT (3/28) 5:37 PM CDT (3/28)
Length of Visible Light 13h 28m
Length of Day
12h 32m
Waning Crescent, 6% of the Moon is Illuminated
Mar 28
Waning Crescent
Mar 30
New
Apr 7
First Quarter
Apr 15
Full
Apr 22
Last Quarter

Hourly Weather History & Observations

Time (CDT) Temp. Windchill Dew Point Humidity Pressure Visibility Wind Dir Wind Speed Gust Speed Precip Events Conditions
12:15 AM 32.0 °F 20.5 °F 30.2 °F 93% 29.79 in 10.0 mi NNW 18.4 mph 25.3 mph N/A   Overcast
12:40 AM 32.0 °F 20.1 °F 30.2 °F 93% 29.79 in 10.0 mi NNW 19.6 mph 28.8 mph N/A   Overcast
12:55 AM 32.0 °F 20.5 °F 30.2 °F 93% 29.80 in 10.0 mi NNW 18.4 mph 25.3 mph N/A   Overcast
1:15 AM 32.0 °F 21.2 °F 28.4 °F 87% 29.81 in 10.0 mi North 16.1 mph 25.3 mph N/A   Overcast
1:40 AM 30.2 °F 18.1 °F 28.4 °F 93% 29.82 in 10.0 mi North 18.4 mph 24.2 mph N/A   Overcast
1:55 AM 30.2 °F 18.5 °F 28.4 °F 93% 29.83 in 10.0 mi North 17.3 mph - N/A   Overcast
2:15 AM 30.2 °F 18.1 °F 28.4 °F 93% 29.84 in 10.0 mi North 18.4 mph 24.2 mph N/A   Overcast
2:35 AM 30.2 °F 19.3 °F 28.4 °F 93% 29.86 in 10.0 mi North 15.0 mph 23.0 mph N/A   Overcast
2:55 AM 30.2 °F 18.9 °F 28.4 °F 93% 29.86 in 10.0 mi North 16.1 mph 21.9 mph N/A   Overcast
3:15 AM 30.2 °F 19.3 °F 28.4 °F 93% 29.87 in 10.0 mi North 15.0 mph 23.0 mph N/A   Overcast
3:35 AM 30.2 °F 19.8 °F 28.4 °F 93% 29.88 in 10.0 mi North 13.8 mph - N/A   Overcast
3:55 AM 28.4 °F 18.0 °F 26.6 °F 93% 29.88 in 10.0 mi North 12.7 mph 21.9 mph N/A   Overcast
4:15 AM 28.4 °F 17.0 °F 26.6 °F 93% 29.89 in 10.0 mi North 15.0 mph - N/A   Overcast
4:35 AM 28.4 °F 18.0 °F 26.6 °F 93% 29.90 in 10.0 mi North 12.7 mph 19.6 mph N/A   Overcast
4:55 AM 28.4 °F 18.0 °F 26.6 °F 93% 29.92 in 10.0 mi North 12.7 mph - N/A   Overcast
5:15 AM 28.4 °F 18.5 °F 26.6 °F 93% 29.92 in 10.0 mi North 11.5 mph - N/A   Overcast
5:35 AM 28.4 °F 17.0 °F 26.6 °F 93% 29.92 in 10.0 mi North 15.0 mph - N/A   Overcast
5:55 AM 28.4 °F 19.1 °F 26.6 °F 93% 29.94 in 10.0 mi North 10.4 mph - N/A   Overcast
6:15 AM 28.4 °F 21.2 °F 26.6 °F 93% 29.96 in 10.0 mi NNW 6.9 mph - N/A   Overcast
6:35 AM 26.6 °F 18.2 °F 24.8 °F 93% 29.96 in 10.0 mi North 8.1 mph - N/A   Overcast
6:55 AM 26.6 °F 17.5 °F 24.8 °F 93% 29.95 in 10.0 mi North 9.2 mph - N/A   Overcast
7:15 AM 24.8 °F 16.9 °F 24.8 °F 100% 29.97 in 10.0 mi NNW 6.9 mph - N/A   Overcast
7:35 AM 26.6 °F 19.1 °F 24.8 °F 93% 30.00 in 10.0 mi WNW 6.9 mph - N/A   Overcast
7:55 AM 26.6 °F 18.2 °F 24.8 °F 93% 30.02 in 9.0 mi West 8.1 mph - N/A   Overcast
8:15 AM 26.6 °F 18.2 °F 24.8 °F 93% 30.01 in 10.0 mi NNW 8.1 mph - N/A   Overcast
8:35 AM 26.6 °F 17.5 °F 26.6 °F 100% 30.01 in 10.0 mi North 9.2 mph - N/A   Overcast
8:55 AM 28.4 °F 18.0 °F 26.6 °F 93% 30.01 in 10.0 mi NNE 12.7 mph - N/A   Overcast
9:15 AM 28.4 °F 19.7 °F 26.6 °F 93% 30.03 in 10.0 mi NNE 9.2 mph - N/A   Overcast
9:35 AM 28.4 °F 21.2 °F 26.6 °F 93% 30.04 in 10.0 mi NNE 6.9 mph - N/A   Overcast
9:55 AM 28.4 °F 20.4 °F 24.8 °F 86% 30.05 in 10.0 mi North 8.1 mph - N/A   Overcast
10:15 AM 28.4 °F 19.7 °F 24.8 °F 86% 30.06 in 10.0 mi NNE 9.2 mph - N/A   Overcast
10:35 AM 28.4 °F 19.7 °F 24.8 °F 86% 30.06 in 10.0 mi NNE 9.2 mph - N/A   Overcast
10:55 AM 28.4 °F 22.2 °F 24.8 °F 86% 30.07 in 10.0 mi Variable 5.8 mph 11.5 mph N/A   Overcast
11:15 AM 28.4 °F 19.1 °F 26.6 °F 93% 30.06 in 10.0 mi NE 10.4 mph - N/A   Overcast
11:35 AM 28.4 °F 20.4 °F 26.6 °F 93% 30.07 in 10.0 mi NNE 8.1 mph - N/A   Overcast
11:55 AM 30.2 °F 21.9 °F 26.6 °F 86% 30.06 in 10.0 mi NE 9.2 mph - N/A   Overcast
12:15 PM 30.2 °F 25.4 °F 26.6 °F 86% 30.07 in 10.0 mi East 4.6 mph 11.5 mph N/A   Overcast
12:35 PM 30.2 °F - 26.6 °F 86% 30.08 in 10.0 mi Calm Calm - N/A   Overcast
12:55 PM 30.2 °F - 26.6 °F 86% 30.10 in 10.0 mi Calm Calm - N/A   Overcast
1:15 PM 30.2 °F - 26.6 °F 86% 30.10 in 10.0 mi Calm Calm - N/A   Overcast
1:35 PM 30.2 °F - 26.6 °F 86% 30.11 in 10.0 mi Calm Calm - N/A   Overcast
1:55 PM 32.0 °F - 26.6 °F 80% 30.11 in 10.0 mi Calm Calm - N/A   Overcast
2:15 PM 32.0 °F 27.5 °F 26.6 °F 80% 30.12 in 10.0 mi NW 4.6 mph - N/A   Overcast
2:35 PM 32.0 °F - 26.6 °F 80% 30.12 in 10.0 mi Calm Calm - N/A   Overcast
2:55 PM 32.0 °F - 26.6 °F 80% 30.11 in 10.0 mi Calm Calm - N/A   Overcast
3:15 PM 32.0 °F 27.5 °F 26.6 °F 80% 30.12 in 10.0 mi NE 4.6 mph - N/A   Overcast
3:35 PM 32.0 °F 27.5 °F 26.6 °F 80% 30.12 in 10.0 mi ENE 4.6 mph - N/A   Overcast
3:55 PM 32.0 °F 27.5 °F 26.6 °F 80% 30.12 in 10.0 mi NE 4.6 mph - N/A   Overcast
4:15 PM 32.0 °F 27.5 °F 26.6 °F 80% 30.11 in 10.0 mi Variable 4.6 mph - N/A   Overcast
4:35 PM 32.0 °F 26.4 °F 28.4 °F 87% 30.12 in 10.0 mi ENE 5.8 mph - N/A   Overcast
4:55 PM 32.0 °F 25.6 °F 28.4 °F 87% 30.12 in 10.0 mi NE 6.9 mph - N/A   Overcast
5:15 PM 32.0 °F 26.4 °F 26.6 °F 80% 30.13 in 10.0 mi NNE 5.8 mph - N/A   Overcast
5:35 PM 32.0 °F 26.4 °F 28.4 °F 87% 30.14 in 10.0 mi NNE 5.8 mph - N/A   Overcast
5:55 PM 32.0 °F 24.2 °F 28.4 °F 87% 30.13 in 10.0 mi NNE 9.2 mph - N/A   Overcast
6:15 PM 32.0 °F 24.8 °F 30.2 °F 93% 30.14 in 10.0 mi North 8.1 mph - N/A   Overcast
6:35 PM 32.0 °F 24.8 °F 28.4 °F 87% 30.14 in 10.0 mi NNE 8.1 mph - N/A   Overcast
6:55 PM 32.0 °F 25.6 °F 28.4 °F 87% 30.14 in 10.0 mi NNE 6.9 mph - N/A   Overcast
7:15 PM 32.0 °F 25.6 °F 28.4 °F 87% 30.15 in 10.0 mi NNE 6.9 mph - N/A   Overcast
7:35 PM 32.0 °F 24.8 °F 28.4 °F 87% 30.16 in 10.0 mi NNE 8.1 mph - N/A   Overcast
7:55 PM 30.2 °F 21.9 °F 28.4 °F 93% 30.16 in 10.0 mi NNE 9.2 mph - N/A   Overcast
8:15 PM 30.2 °F 22.6 °F 28.4 °F 93% 30.17 in 10.0 mi NNE 8.1 mph - N/A   Overcast
8:35 PM 30.2 °F 24.3 °F 28.4 °F 93% 30.18 in 10.0 mi NNE 5.8 mph - N/A   Overcast
8:55 PM 30.2 °F 24.3 °F 28.4 °F 93% 30.19 in 10.0 mi North 5.8 mph - N/A   Overcast
9:15 PM 30.2 °F 23.4 °F 28.4 °F 93% 30.20 in 10.0 mi North 6.9 mph - N/A   Overcast
9:35 PM 30.2 °F 25.4 °F 28.4 °F 93% 30.21 in 10.0 mi North 4.6 mph - N/A   Overcast
9:55 PM 30.2 °F 21.9 °F 28.4 °F 93% 30.22 in 10.0 mi North 9.2 mph - N/A   Overcast
10:15 PM 30.2 °F 21.3 °F 28.4 °F 93% 30.22 in 10.0 mi North 10.4 mph - N/A   Overcast
10:35 PM 30.2 °F 22.6 °F 28.4 °F 93% 30.22 in 10.0 mi North 8.1 mph - N/A   Overcast
10:55 PM 30.2 °F 21.9 °F 28.4 °F 93% 30.22 in 10.0 mi North 9.2 mph - N/A   Overcast
11:15 PM 30.2 °F 23.4 °F 28.4 °F 93% 30.23 in 10.0 mi NNE 6.9 mph - N/A   Overcast
11:40 PM 30.2 °F 22.6 °F 28.4 °F 93% 30.23 in 10.0 mi North 8.1 mph - N/A   Overcast
11:55 PM 30.2 °F 21.9 °F 28.4 °F 93% 30.24 in 10.0 mi North 9.2 mph - N/A   Overcast